PA3DZX-13 Weather Reports


time (UTC)temp
C
wind
direction
speed
KPH
gust
KPH
rain 1hr
cm
rain 24hr
cm
rain mn
cm
humidity
%
barometer
mb
20260509105636 15 142 6.4 12.9 0.00 0.00 0.00 56 1019.3
20260509104136 15 109 3.2 17.7 0.00 0.00 0.00 63 1019.3
20260509102635 15 128 6.4 17.7 0.00 0.00 0.00 60 1019.3
20260509101135 15 83 3.2 12.9 0.00 0.00 0.00 63 1019.4
20260509095635 15 166 0.0 12.9 0.00 0.00 0.00 66 1019.4
20260509094134 12 83 6.4 12.9 0.00 0.00 0.00 69 1019.5
20260509092634 12 36 6.4 12.9 0.00 0.00 0.00 72 1019.5
20260509091134 12 39 6.4 12.9 0.00 0.00 0.00 73 1019.5
20260509085633 11 46 6.4 12.9 0.00 0.00 0.00 77 1019.6
20260509084133 11 28 9.7 12.9 0.00 0.00 0.00 77 1019.7
20260509082633 11 55 6.4 12.9 0.00 0.00 0.00 78 1019.7
20260509081132 11 37 6.4 12.9 0.00 0.00 0.00 78 1019.8
20260509075633 11 35 6.4 9.7 0.00 0.00 0.00 79 1019.8
20260509074132 10 71 3.2 9.7 0.00 0.00 0.00 79 1019.8
20260509072632 10 94 3.2 9.7 0.00 0.00 0.00 79 1019.9
20260509071131 10 66 3.2 9.7 0.00 0.00 0.00 81 1020.0
20260509065631 10 68 3.2 9.7 0.00 0.00 0.00 80 1020.0
20260509064131 10 66 6.4 12.9 0.00 0.00 0.00 84 1019.8
20260509062630 8 65 6.4 12.9 0.00 0.00 0.00 87 1019.8
20260509061129 8 58 9.7 12.9 0.00 0.00 0.00 89 1019.7
20260509055630 7 61 6.4 12.9 0.00 0.00 0.00 92 1019.6
20260509054129 7 54 6.4 9.7 0.00 0.00 0.00 96 1019.5
20260509052629 5 55 3.2 9.7 0.00 0.00 0.00 99 1019.5
20260509051128 5 57 6.4 9.7 0.00 0.00 0.00 99 1019.5
20260509045628 5 62 6.4 6.4 0.00 0.00 0.00 99 1019.4
20260509044127 3 53 3.2 6.4 0.00 0.00 0.00 99 1019.5
20260509042628 5 54 3.2 6.4 0.00 0.00 0.00 99 1019.5
20260509041127 3 51 6.4 6.4 0.00 0.00 0.00 99 1019.5
20260509035627 3 51 6.4 6.4 0.00 0.00 0.00 99 1019.6
20260509034127 1 40 3.2 6.4 0.00 0.00 0.00 98 1019.6
20260509032627 2 53 3.2 6.4 0.00 0.00 0.00 99 1019.8
20260509031127 2 43 6.4 6.4 0.00 0.00 0.00 99 1019.9
20260509025626 2 22 3.2 3.2 0.00 0.00 0.00 99 1019.9
20260509024125 2 22 3.2 6.4 0.00 0.00 0.00 99 1019.8
20260509022626 2 23 3.2 3.2 0.00 0.00 0.00 99 1019.7
20260509021125 2 26 3.2 6.4 0.00 0.00 0.00 98 1019.8
20260509015625 3 18 3.2 3.2 0.00 0.00 0.00 99 1020.0
20260509014125 3 49 0.0 3.2 0.00 0.00 0.00 99 1020.0
20260509012625 3 49 0.0 0.0 0.00 0.00 0.00 98 1020.0
20260509011125 3 49 0.0 0.0 0.00 0.00 0.00 96 1020.0
20260509005625 5 88 3.2 9.7 0.00 0.00 0.00 90 1020.0
20260509004124 6 83 3.2 9.7 0.00 0.00 0.00 89 1019.9
20260509002624 7 88 6.4 9.7 0.00 0.00 0.00 87 1019.8
20260509001123 7 84 6.4 12.9 0.00 0.00 0.00 87 1019.8
20260508235623 7 104 6.4 12.9 0.00 0.00 0.00 86 1019.8
20260508234123 7 104 6.4 9.7 0.00 0.00 0.00 86 1019.9
20260508232624 7 95 6.4 9.7 0.00 0.00 0.00 84 1020.1
20260508231123 8 85 6.4 9.7 0.00 0.00 0.00 82 1020.0
20260508225623 8 78 6.4 12.9 0.00 0.00 0.00 83 1019.9
20260508224122 8 91 6.4 12.9 0.00 0.00 0.00 81 1019.9
20260508222623 8 85 6.4 12.9 0.00 0.00 0.00 80 1020.0
20260508221121 8 91 6.4 12.9 0.00 0.00 0.00 80 1020.0
20260508215621 8 79 6.4 9.7 0.00 0.00 0.00 80 1020.0
20260508214121 8 85 6.4 9.7 0.00 0.00 0.00 79 1020.0
20260508212621 8 78 6.4 9.7 0.00 0.00 0.00 78 1019.9
20260508211121 10 81 6.4 9.7 0.00 0.00 0.00 76 1019.8
20260508205621 10 79 6.4 9.7 0.00 0.00 0.00 76 1019.9
20260508204120 10 83 6.4 9.7 0.00 0.00 0.00 75 1019.8
20260508202620 10 84 6.4 6.4 0.00 0.00 0.00 75 1019.7
20260508201120 8 82 6.4 6.4 0.00 0.00 0.00 77 1019.7
20260508195620 8 85 3.2 6.4 0.00 0.00 0.00 80 1019.6
20260508194120 10 80 3.2 6.4 0.00 0.00 0.00 74 1019.4
20260508192621 11 95 3.2 6.4 0.00 0.00 0.00 65 1019.2
20260508191120 11 97 3.2 9.7 0.00 0.00 0.00 65 1019.0
20260508185619 12 96 6.4 12.9 0.00 0.00 0.00 61 1018.9
20260508184118 13 96 6.4 12.9 0.00 0.00 0.00 59 1018.8
20260508182618 13 92 6.4 12.9 0.00 0.00 0.00 59 1018.8
20260508181118 13 85 9.7 17.7 0.00 0.00 0.00 53 1018.4
20260508175618 15 94 6.4 17.7 0.00 0.00 0.00 55 1018.4
20260508174118 15 110 9.7 17.7 0.00 0.00 0.00 53 1018.3
20260508172619 15 99 9.7 20.9 0.00 0.00 0.00 54 1018.1
20260508171117 15 116 9.7 20.9 0.00 0.00 0.00 52 1018.1
20260508165617 15 96 12.9 20.9 0.00 0.00 0.00 52 1018.2
20260508164117 15 92 9.7 17.7 0.00 0.00 0.00 52 1018.2
20260508162617 15 76 9.7 20.9 0.00 0.00 0.00 55 1018.4
20260508161116 15 58 12.9 20.9 0.00 0.00 0.00 54 1018.3
20260508155617 15 98 9.7 17.7 0.00 0.00 0.00 55 1018.2
20260508154116 15 110 9.7 17.7 0.00 0.00 0.00 51 1018.3
20260508152616 15 77 9.7 20.9 0.00 0.00 0.00 52 1018.4
20260508151115 15 73 9.7 20.9 0.00 0.00 0.00 50 1018.4
20260508145616 15 109 9.7 20.9 0.00 0.00 0.00 51 1018.5
20260508144115 15 76 9.7 17.7 0.00 0.00 0.00 55 1018.5
20260508142615 15 95 9.7 20.9 0.00 0.00 0.00 55 1018.6
20260508141115 16 86 6.4 17.7 0.00 0.00 0.00 52 1018.6
20260508135615 15 107 9.7 17.7 0.00 0.00 0.00 52 1018.6
20260508134113 15 87 9.7 17.7 0.00 0.00 0.00 55 1018.6
20260508132614 15 94 9.7 20.9 0.00 0.00 0.00 55 1018.6
20260508131113 15 82 12.9 20.9 0.00 0.00 0.00 54 1018.8
20260508125613 15 120 9.7 20.9 0.00 0.00 0.00 55 1018.8
20260508124112 15 113 9.7 20.9 0.00 0.00 0.00 56 1018.8
20260508122612 15 89 9.7 20.9 0.00 0.00 0.00 55 1018.8
20260508121111 15 100 9.7 20.9 0.00 0.00 0.00 57 1019.0
20260508115612 15 107 9.7 20.9 0.00 0.00 0.00 55 1018.9
20260508114111 15 58 9.7 17.7 0.00 0.00 0.00 57 1018.9
20260508112612 13 98 9.7 20.9 0.00 0.00 0.00 58 1019.2
20260508111110 13 123 9.7 17.7 0.00 0.00 0.00 60 1019.2